This is the latest recevied weather packets stored in our database for station/object XQ6AK-15. If no packets are shown the sender has not sent any weather packets the latest 10 day(s).
| Time | Temp. | Humidity | Pressure | Rain* | Wind** | Luminosity | Snow |
|---|---|---|---|---|---|---|---|
| 1777646130 | 10.56° C | 99% | 1021 hPa | 0 mm | - | 386 W/m² | - |
| 1777645827 | 10.56° C | 99% | 1021 hPa | 0 mm | - | 329 W/m² | - |
| 1777645524 | 10° C | 99% | 1020.9 hPa | 0 mm | - | 303 W/m² | - |
| 1777645220 | 8.89° C | 99% | 1020.6 hPa | 0 mm | - | 295 W/m² | - |
| 1777644915 | 8.89° C | 99% | 1020.9 hPa | 0 mm | - | 163 W/m² | - |
| 1777644614 | 8.33° C | 99% | 1020.8 hPa | 0 mm | - | 157 W/m² | - |
| 1777644309 | 8.33° C | 99% | 1020.7 hPa | 0 mm | - | 138 W/m² | - |
| 1777644005 | 8.33° C | 99% | 1020.7 hPa | 0 mm | - | 145 W/m² | - |
| 1777643702 | 8.89° C | 99% | 1020.7 hPa | 0 mm | - | 161 W/m² | - |
| 1777643400 | 7.78° C | 99% | 1020.8 hPa | 0 mm | - | 192 W/m² | - |
| 1777643095 | 7.78° C | 99% | 1020.8 hPa | 0 mm | - | 119 W/m² | - |
| 1777642793 | 7.78° C | 99% | 1020.6 hPa | 0 mm | - | 98 W/m² | - |
| 1777642489 | 7.78° C | 99% | 1020.4 hPa | 0 mm | - | 111 W/m² | - |
| 1777642186 | 7.78° C | 99% | 1020.3 hPa | 0 mm | - | 163 W/m² | - |
| 1777641884 | 7.22° C | 99% | 1020.3 hPa | 0 mm | - | 117 W/m² | - |
| 1777641583 | 6.67° C | 99% | 1020.1 hPa | 0 mm | - | 140 W/m² | - |
| 1777641278 | 6.67° C | 99% | 1020.1 hPa | 0 mm | - | 134 W/m² | - |
| 1777640975 | 6.11° C | 99% | 1020.1 hPa | 0 mm | - | 111 W/m² | - |
| 1777640672 | 5.56° C | 99% | 1020 hPa | 0 mm | - | 107 W/m² | - |
| 1777640368 | 5.56° C | 99% | 1019.7 hPa | 0 mm | - | 62 W/m² | - |
| 1777640065 | 5.56° C | 99% | 1019.7 hPa | 0 mm | - | 55 W/m² | - |
| 1777639762 | 6.11° C | 99% | 1019.6 hPa | 0 mm | - | 64 W/m² | - |
| 1777639459 | 5.56° C | 99% | 1019.5 hPa | 0 mm | - | 71 W/m² | - |
| 1777639155 | 5.56° C | 99% | 1019.2 hPa | 0 mm | - | 72 W/m² | - |
| 1777638852 | 4.44° C | 99% | 1019.2 hPa | 0 mm | - | 70 W/m² | - |
* Rain latest hour (hover to see other rain measurements)
** Current wind speed in m/s (hover to see current wind gust speed)